Regional Weather Roundup
Issued by NWS Little Rock, AR

Home | Current Version | Previous Version | Text Only | Print | Product List | Glossary Off
Versions: 1 2 3 4 5 6 7 8 9 10 11 12 13 14 15 16 17 18 19 20 21 22 23 24 25 26 27 28 29 30 31 32 33 34 35 36 37 38 39 40 41 42 43 44 45 46 47 48 49 50

000
ASUS44 KLZK 280405
RWRLZK

WEATHER ROUNDUP FOR ARKANSAS
NATIONAL WEATHER SERVICE LITTLE ROCK AR
1100 PM CDT FRI MAR 27 2015

NOTE: "FAIR" INDICATES FEW OR NO CLOUDS BELOW 12,000 FEET WITH NO
SIGNIFICANT WEATHER AND/OR OBSTRUCTIONS TO VISIBILITY.

ARZ001-003-010-029-280500-
NORTHWEST ARKANSAS

CITY           SKY/WX    TMP DP  RH WIND       PRES   REMARKS
FAYETTEVILLE   CLOUDY    44  27  51 CALM      30.16F
FORT SMITH     CLOUDY    50  25  37 N6        30.18R
HARRISON       CLOUDY    42  27  55 N3        30.17S
BENTONVILLE    CLOUDY    45  23  42 E5        30.16F
ROGERS         CLOUDY    43  25  49 E5        30.16F
SILOAM SPGS    CLOUDY    45  28  53 CALM      30.16F
HIGHFILL       CLOUDY    45  26  47 CALM      30.15F
$$

ARZ004-005-016-280500-
NORTH CENTRAL ARKANSAS

CITY           SKY/WX    TMP DP  RH WIND       PRES   REMARKS
BATESVILLE     CLOUDY    39  28  65 W3        30.19S
FLIPPIN        CLOUDY    43  25  49 N3        30.17S
MTN HOME       CLOUDY    41  23  48 CALM      30.17S
$$

ARZ040-041-280500-
WEST CENTRAL ARKANSAS

CITY           SKY/WX    TMP DP  RH WIND       PRES   REMARKS
MENA           PTCLDY    45  32  61 W3        30.18R
MOUNT IDA      MOCLDY    43  35  73 CALM      30.15R
$$

ARZ009-017-025-026-028-280500-
NORTHEAST ARKANSAS

CITY           SKY/WX    TMP DP  RH WIND       PRES   REMARKS
CORNING          N/A     37  30  75 E7        30.22R
JONESBORO      MOCLDY    36  31  82 NE7       30.20R
NEWPORT        PTCLDY    41  34  76 E8        30.21R
BLYTHEVILLE    PTCLDY    34  28  79 NE5       30.20S WCI  30
$$

ARZ022-023-033-042-044-280500-
CENTRAL ARKANSAS

CITY           SKY/WX    TMP DP  RH WIND       PRES   REMARKS
LITTLE ROCK    CLOUDY    45  30  55 NE6       30.20R
N LITTLE ROCK  CLOUDY    45  31  59 NE6       30.20R
JACKSONVILLE   CLOUDY    44  35  70 NE2       30.19R
SEARCY         CLOUDY    42  35  76 CALM      30.21R
HOT SPRINGS    CLOUDY    46  36  68 CALM      30.18R
RUSSELLVILLE   CLOUDY    45  37  73 CALM      30.18R
CLINTON        CLOUDY    43  32  65 CALM      30.20S
$$

ARZ036-280500-
EAST ARKANSAS

CITY           SKY/WX    TMP DP  RH WIND       PRES   REMARKS
WEST MEMPHIS   PTCLDY    38  30  73 NE6       30.19R
$$

ARZ050-053-066-070-073-280500-
SOUTHWEST ARKANSAS

CITY           SKY/WX    TMP DP  RH WIND       PRES   REMARKS
ARKADELPHIA    CLOUDY    46  44  93 CALM      30.18R
CAMDEN         MOCLDY    41  37  87 CALM      30.18R
TEXARKANA      PTCLDY    48  34  58 CALM      30.17R
EL DORADO      MOCLDY    45  39  79 CALM      30.17R
DE QUEEN       MOCLDY    45  38  76 W3        30.17R
$$

ARZ056-057-069-280500-
SOUTHEAST ARKANSAS

CITY           SKY/WX    TMP DP  RH WIND       PRES   REMARKS
PINE BLUFF     CLEAR     45  37  73 CALM      30.18R
STUTTGART      MOCLDY    45  30  57 NE8       30.19R
MONTICELLO     PTCLDY    41  37  86 CALM      30.17R

$$




USA.gov is the U.S. government's official web portal to all federal, state and local government web resources and services.